LNOSC SVBC-SVCU

Flight info

Callsign LNOSC
Flight time 0h 24m
Altitude 7000
Route ESGIR1 PORGA
Aircraft EC35/L-SDFGRY/C

Departure

Time 2026-04-11 16:53
Airport General José Antonio Anzoategui International Airport (SVBC)

Arrival

Time 2026-04-11 17:17
Airport Antonio José de Sucre Airport (SVCU)
Time Latitude Longitude Altitude Speed Heading
2026-04-11 16:38 10.10829 -64.68691 26 ft 0 kts 347°
2026-04-11 16:47 10.10834 -64.68688 38 ft 1 kts
2026-04-11 16:48 10.10832 -64.68689 21 ft 0 kts 351°
2026-04-11 16:48 10.10833 -64.68690 17 ft 0 kts 344°
2026-04-11 16:49 10.10833 -64.68689 19 ft 1 kts 348°
2026-04-11 16:49 10.10832 -64.68689 19 ft 1 kts
2026-04-11 16:49 10.10832 -64.68688 17 ft 0 kts
2026-04-11 16:50 10.10831 -64.68688 18 ft 0 kts
2026-04-11 16:50 10.10826 -64.68688 44 ft 1 kts 358°
2026-04-11 16:50 10.10823 -64.68687 31 ft 0 kts 348°
2026-04-11 16:50 10.10823 -64.68689 37 ft 0 kts 356°
2026-04-11 16:51 10.10822 -64.68689 21 ft 0 kts 348°
2026-04-11 16:51 10.10821 -64.68688 24 ft 1 kts 356°
2026-04-11 16:51 10.10859 -64.68705 44 ft 12 kts 330°
2026-04-11 16:52 10.11041 -64.68774 68 ft 45 kts 349°
2026-04-11 16:52 10.11416 -64.68745 141 ft 63 kts 11°
2026-04-11 16:52 10.11945 -64.68592 390 ft 92 kts 12°
2026-04-11 16:52 10.12391 -64.68475 548 ft 107 kts 13°
2026-04-11 16:53 10.13174 -64.68247 668 ft 125 kts 14°
2026-04-11 16:53 10.14233 -64.67778 852 ft 130 kts 20°
2026-04-11 16:53 10.14779 -64.67482 935 ft 134 kts 24°
2026-04-11 16:53 10.15868 -64.66821 1033 ft 139 kts 29°
2026-04-11 16:54 10.16641 -64.66250 1133 ft 137 kts 35°
2026-04-11 16:54 10.17146 -64.65831 1118 ft 139 kts 37°
2026-04-11 16:54 10.17834 -64.65134 1134 ft 143 kts 43°
2026-04-11 16:54 10.18488 -64.64362 1137 ft 144 kts 42°
2026-04-11 16:55 10.19304 -64.63823 1191 ft 146 kts 20°
2026-04-11 16:55 10.20179 -64.63429 1180 ft 93 kts 24°
2026-04-11 16:55 10.20949 -64.63059 707 ft 134 kts 20°
2026-04-11 16:55 10.21782 -64.62596 729 ft 143 kts 26°
2026-04-11 16:56 10.23560 -64.61703 930 ft 139 kts
2026-04-11 16:56 10.24474 -64.61415 900 ft 146 kts 36°
2026-04-11 16:56 10.24582 -64.60446 998 ft 149 kts 112°
2026-04-11 16:57 10.23771 -64.60135 1190 ft 134 kts 209°
2026-04-11 16:57 10.23479 -64.61026 878 ft 153 kts 270°
2026-04-11 16:57 10.23369 -64.62113 638 ft 157 kts 259°
2026-04-11 16:57 10.23003 -64.63030 714 ft 145 kts 203°
2026-04-11 16:58 10.22040 -64.62753 573 ft 154 kts 150°
2026-04-11 16:58 10.21094 -64.62245 488 ft 152 kts 138°
2026-04-11 16:58 10.20945 -64.61322 555 ft 142 kts 53°
2026-04-11 16:58 10.21803 -64.61129 607 ft 137 kts 334°
2026-04-11 16:59 10.22557 -64.61768 433 ft 146 kts 316°
2026-04-11 16:59 10.23339 -64.62349 449 ft 137 kts 322°
2026-04-11 16:59 10.24140 -64.62802 659 ft 124 kts 338°
2026-04-11 16:59 10.25025 -64.63005 514 ft 134 kts 359°
2026-04-11 17:00 10.25639 -64.62372 417 ft 141 kts 69°
2026-04-11 17:00 10.25707 -64.61367 386 ft 147 kts 83°
2026-04-11 17:00 10.25667 -64.60350 335 ft 148 kts 89°
2026-04-11 17:00 10.25487 -64.59334 283 ft 144 kts 97°
2026-04-11 17:01 10.25205 -64.58409 724 ft 127 kts 105°
2026-04-11 17:01 10.24768 -64.57583 981 ft 143 kts 119°
2026-04-11 17:01 10.24185 -64.56724 1075 ft 153 kts 116°
2026-04-11 17:01 10.23743 -64.55733 1157 ft 153 kts 103°
2026-04-11 17:02 10.23466 -64.54660 1167 ft 161 kts 99°
2026-04-11 17:02 10.23239 -64.53554 1228 ft 158 kts 95°
2026-04-11 17:02 10.23253 -64.52492 1498 ft 148 kts 78°
2026-04-11 17:02 10.23397 -64.51453 1631 ft 152 kts 78°
2026-04-11 17:03 10.23597 -64.50408 1778 ft 154 kts 74°
2026-04-11 17:03 10.23814 -64.49319 1782 ft 163 kts 76°
2026-04-11 17:03 10.23997 -64.48165 1700 ft 166 kts 72°
2026-04-11 17:03 10.24404 -64.47071 1658 ft 167 kts 62°
2026-04-11 17:04 10.24849 -64.45987 1667 ft 159 kts 57°
2026-04-11 17:04 10.25447 -64.45043 1721 ft 160 kts 50°
2026-04-11 17:04 10.26029 -64.44072 1697 ft 161 kts 56°
2026-04-11 17:04 10.26570 -64.43079 1710 ft 160 kts 55°
2026-04-11 17:05 10.27148 -64.42123 1758 ft 160 kts 52°
2026-04-11 17:05 10.27777 -64.41203 1844 ft 158 kts 50°
2026-04-11 17:05 10.28443 -64.40299 1872 ft 159 kts 48°
2026-04-11 17:05 10.29166 -64.39458 1814 ft 162 kts 39°
2026-04-11 17:06 10.29971 -64.38688 1856 ft 161 kts 38°
2026-04-11 17:06 10.30770 -64.37913 1906 ft 157 kts 42°
2026-04-11 17:06 10.31473 -64.37051 1904 ft 160 kts 51°
2026-04-11 17:06 10.32046 -64.36082 1908 ft 160 kts 57°
2026-04-11 17:07 10.32556 -64.35076 1932 ft 160 kts 58°
2026-04-11 17:07 10.32958 -64.34030 1965 ft 161 kts 69°
2026-04-11 17:07 10.33169 -64.32914 1981 ft 161 kts 78°
2026-04-11 17:07 10.33381 -64.31781 1895 ft 166 kts 69°
2026-04-11 17:08 10.33775 -64.30733 1948 ft 161 kts 59°
2026-04-11 17:08 10.34437 -64.29832 1918 ft 161 kts 34°
2026-04-11 17:08 10.35413 -64.29276 1854 ft 160 kts 19°
2026-04-11 17:08 10.36407 -64.28890 1998 ft 151 kts 13°
2026-04-11 17:09 10.37399 -64.28575 2086 ft 146 kts 13°
2026-04-11 17:09 10.38369 -64.28253 2046 ft 154 kts 11°
2026-04-11 17:09 10.39438 -64.27986 1950 ft 158 kts 11°
2026-04-11 17:09 10.40470 -64.27567 1838 ft 165 kts 24°
2026-04-11 17:10 10.41242 -64.26702 1710 ft 172 kts 63°
2026-04-11 17:13 10.47972 -64.16891 359 ft 132 kts 90°
2026-04-11 17:13 10.47758 -64.15989 542 ft 133 kts 104°
2026-04-11 17:13 10.47306 -64.15179 833 ft 133 kts 124°
2026-04-11 17:14 10.46770 -64.14429 1087 ft 136 kts 100°
2026-04-11 17:14 10.47039 -64.13495 1030 ft 148 kts 54°
2026-04-11 17:14 10.47560 -64.12509 729 ft 165 kts 65°
2026-04-11 17:14 10.47563 -64.11384 343 ft 157 kts 106°
2026-04-11 17:15 10.45088 -64.09288 173 ft 120 kts 174°
2026-04-11 17:16 10.44183 -64.09360 457 ft 134 kts 188°
2026-04-11 17:16 10.43321 -64.09736 605 ft 144 kts 226°
2026-04-11 17:16 10.42917 -64.10680 677 ft 147 kts 267°
2026-04-11 17:16 10.43058 -64.11731 741 ft 152 kts 284°
2026-04-11 17:17 10.43386 -64.12708 511 ft 140 kts 290°
2026-04-11 17:17 10.43827 -64.13490 293 ft 113 kts 304°
2026-04-11 17:17 10.44314 -64.13894 301 ft 69 kts 332°
2026-04-11 17:17 10.44664 -64.13923 144 ft 37 kts 32°
2026-04-11 17:18 10.44819 -64.13790 70 ft 23 kts 61°
2026-04-11 17:18 10.44902 -64.13704 43 ft 11 kts 54°
2026-04-11 17:18 10.44942 -64.13679 22 ft 4 kts 71°
2026-04-11 17:18 10.44951 -64.13657 16 ft 2 kts 70°
2026-04-11 17:19 10.44956 -64.13656 9 ft 1 kts 70°
2026-04-11 17:19 10.44955 -64.13653 10 ft 1 kts 83°
2026-04-11 17:19 10.44956 -64.13651 -5 ft 0 kts 64°
2026-04-11 17:21 10.44956 -64.13652 -5 ft 0 kts 66°
2026-04-11 17:27 10.44956 -64.13653 -3 ft 0 kts 78°
2026-04-11 17:33 10.44956 -64.13654 -3 ft 0 kts 89°
2026-04-11 17:42 10.44956 -64.13655 0 ft 0 kts 99°